Location: Moscow
(55.7500°N, 37.5830°E)
Time: 06:56:18
(UTC+03:00)

A-11 Canister half - Pass Details

Date: 04 December 2021
Orbit: 1524 x 1684 km, 47.3° (Epoch: 17 January)

Event Time Altitude Azimuth Distance (km) Brightness Sun altitude
Exits shadow 02:25:26 25° 107° (ESE) 2,888 10.5 -49.2°
Drops below altitude 10° 02:29:41 10° 88° (E) 3,900 11.5 -48.8°
Sets 02:33:06 0° 81° (E) 4,869 12.2 -48.4°
